When you browse on this site, cookies collect data to enhance your experience and personalize the content and advertising you see.
Visit our Privacy Policy to learn more. By continuing to use the site, you agree to this use of cookies and data.
  • In Hungary
  • List of Countries
  • For 7 days
  • Water Temperature
  • Satellite Maps
  • Weather Map
  • News
  • Weather Widgets
  • user-avatar
    Login

    Hourly Weather Louviers

    Today, 25 March, Monday

    Time Temperature Precipitation Wind Pressure Humidity
    00:00 +4°C° 0 mm 2 mps 763 mmHg 93%
    01:00 +4°C° 0 mm 2 mps 763 mmHg 93%
    02:00 +3°C° 0 mm 3 mps 763 mmHg 93%
    03:00 +3°C° 0 mm 3 mps 763 mmHg 93%
    04:00 +3°C° 0 mm 3 mps 763 mmHg 93%
    05:00 +3°C° 0 mm 3 mps 763 mmHg 93%
    06:00 +3°C° 0 mm 4 mps 763 mmHg 91%
    07:00 +5°C° 0 mm 5 mps 763 mmHg 84%
    08:00 +5°C° 0 mm 6 mps 763 mmHg 76%
    09:00 +7°C° 0 mm 6 mps 764 mmHg 69%
    10:00 +8°C° 0 mm 6 mps 764 mmHg 65%
    11:00 +9°C° 0 mm 6 mps 764 mmHg 61%
    12:00 +9°C° 0 mm 6 mps 764 mmHg 58%
    13:00 +9°C° 0 mm 6 mps 764 mmHg 58%
    14:00 +9°C° 0 mm 6 mps 764 mmHg 59%
    15:00 +9°C° 0 mm 6 mps 765 mmHg 59%
    16:00 +8°C° 0 mm 5 mps 765 mmHg 65%
    17:00 +7°C° 0 mm 4 mps 765 mmHg 70%
    18:00 +7°C° 0 mm 3 mps 765 mmHg 75%
    19:00 +5°C° 0 mm 3 mps 765 mmHg 78%
    20:00 +4°C° 0 mm 3 mps 766 mmHg 81%
    21:00 +3°C° 0 mm 3 mps 767 mmHg 84%
    22:00 +4°C° 0 mm 2 mps 767 mmHg 86%
    23:00 +3°C° 0 mm 2 mps 767 mmHg 89%

    Tomorrow, 26 March, Tuesday

    Time Temperature Precipitation Wind Pressure Humidity
    00:00 +3°C° 0 mm 2 mps 767 mmHg 91%
    01:00 +3°C° 0 mm 2 mps 767 mmHg 91%
    02:00 +2°C° 0 mm 2 mps 767 mmHg 92%
    03:00 +2°C° 0 mm 2 mps 767 mmHg 92%
    04:00 +2°C° 0 mm 2 mps 767 mmHg 93%
    05:00 +2°C° 0 mm 2 mps 767 mmHg 93%
    06:00 +1°C° 0 mm 2 mps 767 mmHg 93%
    07:00 +3°C° 0 mm 2 mps 767 mmHg 86%
    08:00 +5°C° 0 mm 2 mps 767 mmHg 78%
    09:00 +8°C° 0 mm 3 mps 768 mmHg 71%
    10:00 +9°C° 0 mm 3 mps 768 mmHg 67%
    11:00 +10°C° 0 mm 3 mps 767 mmHg 63%
    12:00 +11°C° 0 mm 4 mps 767 mmHg 58%
    13:00 +11°C° 0 mm 4 mps 767 mmHg 60%
    14:00 +11°C° 0 mm 4 mps 767 mmHg 61%
    15:00 +11°C° 0 mm 4 mps 767 mmHg 63%
    16:00 +10°C° 0 mm 3 mps 766 mmHg 68%
    17:00 +9°C° 0 mm 3 mps 766 mmHg 73%
    18:00 +8°C° 0 mm 2 mps 766 mmHg 78%
    19:00 +6°C° 0 mm 2 mps 767 mmHg 82%
    20:00 +5°C° 0 mm 2 mps 767 mmHg 86%
    21:00 +4°C° 0 mm 2 mps 767 mmHg 90%
    22:00 +5°C° 0 mm 1 mps 767 mmHg 90%
    23:00 +5°C° 0 mm 1 mps 767 mmHg 90%

    Day after tomorrow, 27 March, Wednesday

    Time Temperature Precipitation Wind Pressure Humidity
    00:00 +4°C° 0 mm 1 mps 767 mmHg 89%
    01:00 +4°C° 0 mm 1 mps 767 mmHg 88%
    02:00 +4°C° 0 mm 1 mps 767 mmHg 88%
    03:00 +4°C° 0 mm 1 mps 767 mmHg 87%
    04:00 +4°C° 0 mm 1 mps 767 mmHg 87%
    05:00 +3°C° 0 mm 1 mps 767 mmHg 87%
    06:00 +3°C° 0 mm 1 mps 767 mmHg 87%
    07:00 +6°C° 0 mm 1 mps 767 mmHg 83%
    08:00 +8°C° 0 mm 1 mps 767 mmHg 79%
    09:00 +9°C° 0 mm 2 mps 767 mmHg 74%
    10:00 +10°C° 0 mm 2 mps 767 mmHg 71%
    11:00 +12°C° 0 mm 2 mps 767 mmHg 68%
    12:00 +12°C° 0 mm 3 mps 767 mmHg 66%
    13:00 +12°C° 0 mm 3 mps 767 mmHg 66%
    14:00 +12°C° 0 mm 3 mps 767 mmHg 66%
    15:00 +12°C° 0 mm 3 mps 767 mmHg 66%
    16:00 +11°C° 0 mm 3 mps 767 mmHg 72%
    17:00 +10°C° 0 mm 3 mps 767 mmHg 77%
    18:00 +9°C° 0 mm 3 mps 767 mmHg 83%
    19:00 +8°C° 0 mm 3 mps 767 mmHg 86%
    20:00 +7°C° 0 mm 3 mps 768 mmHg 90%
    21:00 +5°C° 0 mm 3 mps 768 mmHg 93%
    22:00 +5°C° 0 mm 2 mps 768 mmHg 94%
    23:00 +5°C° 0 mm 2 mps 768 mmHg 94%

    28 March, Thursday

    Time Temperature Precipitation Wind Pressure Humidity
    00:00 +5°C° 0 mm 2 mps 768 mmHg 94%
    01:00 +5°C° 0 mm 2 mps 768 mmHg 93%
    02:00 +4°C° 0 mm 2 mps 768 mmHg 93%
    03:00 +4°C° 0 mm 2 mps 768 mmHg 93%
    04:00 +4°C° 0 mm 2 mps 768 mmHg 93%
    05:00 +4°C° 0 mm 2 mps 768 mmHg 93%
    06:00 +4°C° 0 mm 2 mps 768 mmHg 93%
    07:00 +6°C° 0 mm 2 mps 769 mmHg 88%
    08:00 +8°C° 0 mm 3 mps 769 mmHg 82%
    09:00 +10°C° 0 mm 3 mps 769 mmHg 76%
    10:00 +11°C° 0 mm 3 mps 769 mmHg 72%
    11:00 +12°C° 0 mm 3 mps 769 mmHg 67%
    12:00 +14°C° 0 mm 3 mps 769 mmHg 63%
    13:00 +14°C° 0 mm 3 mps 768 mmHg 64%
    14:00 +14°C° 0 mm 4 mps 768 mmHg 65%
    15:00 +14°C° 0 mm 4 mps 768 mmHg 66%
    16:00 +13°C° 0 mm 3 mps 768 mmHg 71%
    17:00 +12°C° 0 mm 3 mps 767 mmHg 77%
    18:00 +11°C° 0 mm 3 mps 767 mmHg 82%
    19:00 +10°C° 0 mm 3 mps 768 mmHg 85%
    20:00 +9°C° 0 mm 3 mps 768 mmHg 88%
    21:00 +8°C° 0 mm 3 mps 768 mmHg 91%
    22:00 +8°C° 0 mm 3 mps 768 mmHg 92%
    23:00 +7°C° 0 mm 3 mps 768 mmHg 93%

    29 March, Friday

    Time Temperature Precipitation Wind Pressure Humidity
    00:00 +7°C° 0 mm 3 mps 768 mmHg 94%
    01:00 +7°C° 0 mm 2 mps 767 mmHg 94%
    02:00 +6°C° 0 mm 2 mps 767 mmHg 94%
    03:00 +6°C° 0 mm 2 mps 767 mmHg 94%
    04:00 +6°C° 0 mm 2 mps 767 mmHg 94%
    05:00 +5°C° 0 mm 2 mps 767 mmHg 94%
    06:00 +5°C° 0 mm 2 mps 767 mmHg 94%
    07:00 +7°C° 0 mm 2 mps 767 mmHg 88%
    08:00 +9°C° 0 mm 3 mps 767 mmHg 83%
    09:00 +11°C° 0 mm 3 mps 767 mmHg 77%
    10:00 +12°C° 0 mm 3 mps 766 mmHg 72%
    11:00 +13°C° 0 mm 3 mps 766 mmHg 66%
    12:00 +15°C° 0 mm 4 mps 766 mmHg 60%
    13:00 +15°C° 0 mm 4 mps 765 mmHg 59%
    14:00 +15°C° 0 mm 4 mps 765 mmHg 58%
    15:00 +16°C° 0 mm 3 mps 764 mmHg 57%
    16:00 +14°C° 0 mm 3 mps 764 mmHg 62%
    17:00 +13°C° 0 mm 3 mps 764 mmHg 67%
    18:00 +12°C° 0 mm 2 mps 764 mmHg 72%
    19:00 +10°C° 0 mm 2 mps 764 mmHg 75%
    20:00 +9°C° 0 mm 2 mps 764 mmHg 77%
    21:00 +9°C° 0 mm 1 mps 764 mmHg 79%
    22:00 +9°C° 0 mm 1 mps 764 mmHg 81%
    23:00 +8°C° 0 mm 1 mps 764 mmHg 83%

    30 March, Saturday

    Time Temperature Precipitation Wind Pressure Humidity
    00:00 +8°C° 0 mm 1 mps 763 mmHg 84%
    01:00 +7°C° 0 mm 1 mps 763 mmHg 85%
    02:00 +7°C° 0 mm 1 mps 763 mmHg 85%
    03:00 +7°C° 0 mm 1 mps 763 mmHg 86%
    04:00 +6°C° 0 mm 1 mps 763 mmHg 86%
    05:00 +5°C° 0 mm 0 mps 762 mmHg 87%
    06:00 +5°C° 0 mm 0 mps 762 mmHg 87%
    07:00 +8°C° 0 mm 1 mps 762 mmHg 81%
    08:00 +10°C° 0 mm 1 mps 762 mmHg 76%
    09:00 +13°C° 0 mm 1 mps 762 mmHg 70%
    10:00 +14°C° 0 mm 1 mps 762 mmHg 64%
    11:00 +15°C° 0 mm 1 mps 762 mmHg 59%
    12:00 +16°C° 0 mm 1 mps 761 mmHg 53%
    13:00 +16°C° 0 mm 1 mps 761 mmHg 52%
    14:00 +18°C° 0 mm 1 mps 760 mmHg 51%
    15:00 +17°C° 0 mm 2 mps 760 mmHg 50%
    16:00 +16°C° 0 mm 2 mps 760 mmHg 58%
    17:00 +14°C° 0 mm 2 mps 760 mmHg 66%
    18:00 +13°C° 0 mm 2 mps 759 mmHg 74%
    19:00 +10°C° 0 mm 2 mps 760 mmHg 79%
    20:00 +9°C° 0 mm 2 mps 760 mmHg 84%
    21:00 +8°C° 0 mm 2 mps 760 mmHg 90%
    22:00 +7°C° 0 mm 2 mps 760 mmHg 90%
    23:00 +7°C° 0 mm 2 mps 759 mmHg 90%
    Show more